Time,TemperatureF,DewpointF,PressureIn,WindDirection,WindDirectionDegrees,WindSpeedMPH,WindSpeedGustMPH,Humidity,HourlyPrecipIn,Conditions,Clouds,dailyrainin,SoftwareType,DateUTC
2013-07-11 00:04:00,66.9,44.8,29.79,NNW,338,0.3,0.3,45,0.00,,,0.00,WUHU216TE923,2013-07-11 07:04:00,
2013-07-11 00:09:00,66.7,44.6,29.79,NW,315,0.1,0.3,45,0.00,,,0.00,WUHU216TE923,2013-07-11 07:09:00,
2013-07-11 00:14:00,66.7,44.6,29.79,NW,315,0.1,0.1,45,0.00,,,0.00,WUHU216TE923,2013-07-11 07:14:00,
2013-07-11 00:19:00,66.4,45.0,29.79,SW,225,0.0,0.1,46,0.00,,,0.00,WUHU216TE923,2013-07-11 07:19:00,
2013-07-11 00:24:00,66.2,44.8,29.79,NW,315,0.0,0.0,46,0.00,,,0.00,WUHU216TE923,2013-07-11 07:24:00,
2013-07-11 00:29:00,66.0,45.2,29.79,NW,315,0.0,0.0,47,0.00,,,0.00,WUHU216TE923,2013-07-11 07:29:00,
2013-07-11 00:34:00,66.0,44.6,29.79,NNE,23,0.1,0.1,46,0.00,,,0.00,WUHU216TE923,2013-07-11 07:34:00,
2013-07-11 00:39:00,65.8,45.0,29.80,South,180,0.1,0.1,47,0.00,,,0.00,WUHU216TE923,2013-07-11 07:39:00,
2013-07-11 00:44:00,65.5,44.7,29.80,WNW,293,0.0,0.1,47,0.00,,,0.00,WUHU216TE923,2013-07-11 07:44:00,
2013-07-11 00:49:00,65.3,44.5,29.80,WSW,248,0.0,1.0,47,0.00,,,0.00,WUHU216TE923,2013-07-11 07:49:00,
2013-07-11 00:54:00,64.9,44.7,29.80,SSW,203,0.0,1.0,48,0.00,,,0.00,WUHU216TE923,2013-07-11 07:54:00,
2013-07-11 00:59:00,64.8,44.6,29.79,SSW,203,0.1,1.2,48,0.00,,,0.00,WUHU216TE923,2013-07-11 07:59:00,
2013-07-11 01:04:00,64.6,44.5,29.79,WSW,248,0.2,1.2,48,0.00,,,0.00,WUHU216TE923,2013-07-11 08:04:00,
2013-07-11 01:09:00,64.2,44.1,29.79,NNE,23,0.2,1.0,48,0.00,,,0.00,WUHU216TE923,2013-07-11 08:09:00,
2013-07-11 01:14:00,64.0,44.5,29.79,WSW,248,0.1,0.2,49,0.00,,,0.00,WUHU216TE923,2013-07-11 08:14:00,
2013-07-11 01:19:00,64.0,44.5,29.79,South,180,0.2,0.2,49,0.00,,,0.00,WUHU216TE923,2013-07-11 08:19:00,
2013-07-11 01:24:00,63.7,44.2,29.79,SW,225,0.2,0.2,49,0.00,,,0.00,WUHU216TE923,2013-07-11 08:24:00,
2013-07-11 01:29:00,63.5,44.0,29.79,WSW,248,0.3,1.6,49,0.00,,,0.00,WUHU216TE923,2013-07-11 08:29:00,
2013-07-11 01:34:00,63.3,43.8,29.79,SSW,203,0.3,1.6,49,0.00,,,0.00,WUHU216TE923,2013-07-11 08:34:00,
2013-07-11 01:39:00,63.1,43.6,29.79,SW,225,0.3,0.3,49,0.00,,,0.00,WUHU216TE923,2013-07-11 08:39:00,
2013-07-11 01:44:00,63.1,43.6,29.79,WSW,248,0.1,0.3,49,0.00,,,0.00,WUHU216TE923,2013-07-11 08:44:00,
2013-07-11 01:49:00,62.8,43.4,29.79,NW,315,0.0,0.1,49,0.00,,,0.00,WUHU216TE923,2013-07-11 08:49:00,
2013-07-11 01:54:00,62.6,43.2,29.79,SSE,158,0.0,0.0,49,0.00,,,0.00,WUHU216TE923,2013-07-11 08:54:00,
2013-07-11 01:59:00,62.4,43.0,29.80,SW,225,0.0,0.0,49,0.00,,,0.00,WUHU216TE923,2013-07-11 08:59:00,
2013-07-11 02:04:00,62.2,42.8,29.80,WNW,293,0.0,0.0,49,0.00,,,0.00,WUHU216TE923,2013-07-11 09:04:00,
2013-07-11 02:09:00,62.2,42.8,29.80,WNW,293,0.0,0.0,49,0.00,,,0.00,WUHU216TE923,2013-07-11 09:09:00,
2013-07-11 02:14:00,61.9,42.5,29.80,SW,225,0.0,0.0,49,0.00,,,0.00,WUHU216TE923,2013-07-11 09:14:00,
2013-07-11 02:19:00,61.7,42.9,29.80,WSW,248,0.0,0.0,50,0.00,,,0.00,WUHU216TE923,2013-07-11 09:19:00,
2013-07-11 02:24:00,61.9,43.1,29.80,West,270,0.2,0.2,50,0.00,,,0.00,WUHU216TE923,2013-07-11 09:24:00,
2013-07-11 02:29:00,61.9,43.1,29.80,WSW,248,0.2,0.2,50,0.00,,,0.00,WUHU216TE923,2013-07-11 09:29:00,
2013-07-11 02:34:00,61.7,42.9,29.80,SW,225,0.4,1.4,50,0.00,,,0.00,WUHU216TE923,2013-07-11 09:34:00,
2013-07-11 02:39:00,61.5,42.7,29.80,WSW,248,0.4,1.4,50,0.00,,,0.00,WUHU216TE923,2013-07-11 09:39:00,
2013-07-11 02:44:00,61.3,42.5,29.80,SW,225,0.3,0.4,50,0.00,,,0.00,WUHU216TE923,2013-07-11 09:44:00,
2013-07-11 02:49:00,61.3,42.5,29.80,SE,135,0.2,0.3,50,0.00,,,0.00,WUHU216TE923,2013-07-11 09:49:00,
2013-07-11 02:54:00,61.2,42.4,29.80,West,270,0.0,1.0,50,0.00,,,0.00,WUHU216TE923,2013-07-11 09:54:00,
2013-07-11 02:59:00,61.2,42.4,29.80,WSW,248,0.0,1.2,50,0.00,,,0.00,WUHU216TE923,2013-07-11 09:59:00,
2013-07-11 03:04:00,60.8,42.1,29.80,SSE,158,0.1,1.2,50,0.00,,,0.00,WUHU216TE923,2013-07-11 10:04:00,
2013-07-11 03:09:00,60.8,42.1,29.80,WSW,248,0.0,0.1,50,0.00,,,0.00,WUHU216TE923,2013-07-11 10:09:00,
2013-07-11 03:14:00,60.8,42.1,29.80,WSW,248,0.0,0.0,50,0.00,,,0.00,WUHU216TE923,2013-07-11 10:14:00,
2013-07-11 03:19:00,60.6,43.4,29.80,ENE,68,0.0,0.0,53,0.00,,,0.00,WUHU216TE923,2013-07-11 10:19:00,
2013-07-11 03:24:00,60.8,42.1,29.80,South,180,0.1,0.1,50,0.00,,,0.00,WUHU216TE923,2013-07-11 10:24:00,
2013-07-11 03:29:00,60.8,42.6,29.80,NNE,23,0.1,0.1,51,0.00,,,0.00,WUHU216TE923,2013-07-11 10:29:00,
2013-07-11 03:34:00,60.6,43.4,29.80,SW,225,0.0,0.1,53,0.00,,,0.00,WUHU216TE923,2013-07-11 10:34:00,
2013-07-11 03:46:00,60.1,43.5,29.81,SW,225,0.0,0.0,54,0.00,,,0.00,WUHU216TE923,2013-07-11 10:46:00,
2013-07-11 03:51:00,60.1,43.5,29.81,SW,225,0.0,0.0,54,0.00,,,0.00,WUHU216TE923,2013-07-11 10:51:00,
2013-07-11 03:56:00,59.7,43.6,29.81,SW,225,0.0,0.0,55,0.00,,,0.00,WUHU216TE923,2013-07-11 10:56:00,
2013-07-11 04:01:00,59.7,43.6,29.81,SW,225,0.0,0.0,55,0.00,,,0.00,WUHU216TE923,2013-07-11 11:01:00,
2013-07-11 04:06:00,59.5,43.4,29.81,WSW,248,0.5,1.1,55,0.00,,,0.00,WUHU216TE923,2013-07-11 11:06:00,
2013-07-11 04:11:00,59.5,43.4,29.81,WSW,248,0.5,1.1,55,0.00,,,0.00,WUHU216TE923,2013-07-11 11:11:00,
2013-07-11 04:16:00,59.4,43.3,29.81,ENE,68,0.3,0.5,55,0.00,,,0.00,WUHU216TE923,2013-07-11 11:16:00,
2013-07-11 04:21:00,59.4,43.3,29.81,ENE,68,0.3,0.5,55,0.00,,,0.00,WUHU216TE923,2013-07-11 11:21:00,
2013-07-11 04:26:00,59.2,43.6,29.81,WSW,248,0.3,0.3,56,0.00,,,0.00,WUHU216TE923,2013-07-11 11:26:00,
2013-07-11 04:31:00,59.2,43.6,29.81,WSW,248,0.3,0.3,56,0.00,,,0.00,WUHU216TE923,2013-07-11 11:31:00,
2013-07-11 04:36:00,58.8,43.2,29.81,SSW,203,0.4,0.6,56,0.00,,,0.00,WUHU216TE923,2013-07-11 11:36:00,
2013-07-11 04:41:00,58.8,43.2,29.81,SSW,203,0.4,0.6,56,0.00,,,0.00,WUHU216TE923,2013-07-11 11:41:00,
2013-07-11 04:46:00,58.6,43.0,29.81,WSW,248,0.4,1.3,56,0.00,,,0.00,WUHU216TE923,2013-07-11 11:46:00,
2013-07-11 04:51:00,58.6,43.0,29.81,WSW,248,0.4,1.3,56,0.00,,,0.00,WUHU216TE923,2013-07-11 11:51:00,
2013-07-11 04:56:00,58.3,43.2,29.82,WSW,248,0.4,1.2,57,0.00,,,0.00,WUHU216TE923,2013-07-11 11:56:00,
2013-07-11 05:01:00,58.3,43.2,29.82,WSW,248,0.4,1.2,57,0.00,,,0.00,WUHU216TE923,2013-07-11 12:01:00,
2013-07-11 05:06:00,57.6,43.5,29.82,WSW,248,0.6,1.5,59,0.00,,,0.00,WUHU216TE923,2013-07-11 12:06:00,
2013-07-11 05:11:00,57.6,43.5,29.82,WSW,248,0.6,1.5,59,0.00,,,0.00,WUHU216TE923,2013-07-11 12:11:00,
2013-07-11 05:16:00,57.6,43.5,29.82,WSW,248,0.3,1.0,59,0.00,,,0.00,WUHU216TE923,2013-07-11 12:16:00,
2013-07-11 05:21:00,57.6,43.5,29.82,WSW,248,0.3,1.0,59,0.00,,,0.00,WUHU216TE923,2013-07-11 12:21:00,
2013-07-11 05:26:00,57.4,43.3,29.82,SW,225,1.1,1.8,59,0.00,,,0.00,WUHU216TE923,2013-07-11 12:26:00,
2013-07-11 05:31:00,57.4,43.3,29.82,SW,225,1.1,1.8,59,0.00,,,0.00,WUHU216TE923,2013-07-11 12:31:00,
2013-07-11 05:36:00,57.4,43.3,29.83,WSW,248,0.8,2.2,59,0.00,,,0.00,WUHU216TE923,2013-07-11 12:36:00,
2013-07-11 05:41:00,57.4,43.3,29.83,WSW,248,0.8,2.2,59,0.00,,,0.00,WUHU216TE923,2013-07-11 12:41:00,
2013-07-11 05:46:00,57.0,43.4,29.83,WSW,248,1.0,1.5,60,0.00,,,0.00,WUHU216TE923,2013-07-11 12:46:00,
2013-07-11 05:51:00,57.0,43.4,29.83,WSW,248,1.0,1.5,60,0.00,,,0.00,WUHU216TE923,2013-07-11 12:51:00,
2013-07-11 05:56:00,56.7,43.5,29.83,SW,225,0.3,1.1,61,0.00,,,0.00,WUHU216TE923,2013-07-11 12:56:00,
2013-07-11 06:01:00,56.7,43.5,29.83,SW,225,0.3,1.1,61,0.00,,,0.00,WUHU216TE923,2013-07-11 13:01:00,
2013-07-11 06:06:00,56.7,44.4,29.83,West,270,0.1,1.0,63,0.00,,,0.00,WUHU216TE923,2013-07-11 13:06:00,
2013-07-11 06:12:00,56.7,44.4,29.83,West,270,0.1,1.0,63,0.00,,,0.00,WUHU216TE923,2013-07-11 13:12:00,
2013-07-11 06:17:00,56.8,44.9,29.83,WSW,248,0.0,0.1,64,0.00,,,0.00,WUHU216TE923,2013-07-11 13:17:00,
2013-07-11 06:22:00,56.8,44.9,29.83,WSW,248,0.0,0.1,64,0.00,,,0.00,WUHU216TE923,2013-07-11 13:22:00,
2013-07-11 06:27:00,57.0,45.5,29.83,SW,225,0.0,0.0,65,0.00,,,0.00,WUHU216TE923,2013-07-11 13:27:00,
2013-07-11 06:32:00,57.0,45.5,29.83,SW,225,0.0,0.0,65,0.00,,,0.00,WUHU216TE923,2013-07-11 13:32:00,
2013-07-11 06:37:00,57.2,45.3,29.84,SSE,158,0.2,1.6,64,0.00,,,0.00,WUHU216TE923,2013-07-11 13:37:00,
2013-07-11 06:42:00,57.2,45.3,29.84,SSE,158,0.2,1.6,64,0.00,,,0.00,WUHU216TE923,2013-07-11 13:42:00,
2013-07-11 06:47:00,57.7,45.3,29.84,South,180,0.5,0.7,63,0.00,,,0.00,WUHU216TE923,2013-07-11 13:47:00,
2013-07-11 06:52:00,57.9,45.5,29.84,South,180,0.1,0.5,63,0.00,,,0.00,WUHU216TE923,2013-07-11 13:52:00,
2013-07-11 06:57:00,58.1,45.7,29.83,South,180,0.0,0.1,63,0.00,,,0.00,WUHU216TE923,2013-07-11 13:57:00,
2013-07-11 07:02:00,58.5,46.1,29.83,SSE,158,0.1,1.1,63,0.00,,,0.00,WUHU216TE923,2013-07-11 14:02:00,
2013-07-11 07:07:00,58.5,45.7,29.83,WNW,293,0.3,1.1,62,0.00,,,0.00,WUHU216TE923,2013-07-11 14:07:00,
2013-07-11 07:12:00,58.8,45.9,29.83,South,180,0.6,0.6,62,0.00,,,0.00,WUHU216TE923,2013-07-11 14:12:00,
2013-07-11 07:17:00,58.8,45.9,29.83,SE,135,0.4,1.6,62,0.00,,,0.00,WUHU216TE923,2013-07-11 14:17:00,
2013-07-11 07:22:00,59.2,45.9,29.83,ESE,113,0.2,1.6,61,0.00,,,0.00,WUHU216TE923,2013-07-11 14:22:00,
2013-07-11 07:27:00,59.5,46.2,29.83,ESE,113,0.5,0.5,61,0.00,,,0.00,WUHU216TE923,2013-07-11 14:27:00,
2013-07-11 07:32:00,59.7,45.9,29.83,South,180,1.3,3.0,60,0.00,,,0.00,WUHU216TE923,2013-07-11 14:32:00,
2013-07-11 07:37:00,59.7,45.9,29.83,South,180,1.6,3.0,60,0.00,,,0.00,WUHU216TE923,2013-07-11 14:37:00,
2013-07-11 07:42:00,60.1,46.3,29.83,SW,225,1.3,3.3,60,0.00,,,0.00,WUHU216TE923,2013-07-11 14:42:00,
2013-07-11 07:47:00,60.4,46.1,29.83,SE,135,1.3,3.4,59,0.00,,,0.00,WUHU216TE923,2013-07-11 14:47:00,
2013-07-11 07:52:00,60.3,46.0,29.83,SSW,203,2.2,3.7,59,0.00,,,0.00,WUHU216TE923,2013-07-11 14:52:00,
2013-07-11 07:57:00,60.3,46.0,29.82,South,180,2.1,3.7,59,0.00,,,0.00,WUHU216TE923,2013-07-11 14:57:00,
2013-07-11 08:02:00,60.6,46.3,29.82,West,270,1.9,3.3,59,0.00,,,0.00,WUHU216TE923,2013-07-11 15:02:00,
2013-07-11 08:07:00,60.8,46.0,29.82,NNE,23,1.8,3.3,58,0.00,,,0.00,WUHU216TE923,2013-07-11 15:07:00,
2013-07-11 08:12:00,61.2,46.4,29.82,SSE,158,1.2,1.8,58,0.00,,,0.00,WUHU216TE923,2013-07-11 15:12:00,
2013-07-11 08:17:00,61.3,46.5,29.83,SSW,203,1.2,2.1,58,0.00,,,0.00,WUHU216TE923,2013-07-11 15:17:00,
2013-07-11 08:22:00,61.5,46.7,29.83,SE,135,1.5,2.1,58,0.00,,,0.00,WUHU216TE923,2013-07-11 15:22:00,
2013-07-11 08:28:00,61.9,46.6,29.83,South,180,1.4,3.6,57,0.00,,,0.00,WUHU216TE923,2013-07-11 15:28:00,
2013-07-11 08:33:00,62.1,46.8,29.83,ESE,113,1.4,3.6,57,0.00,,,0.00,WUHU216TE923,2013-07-11 15:33:00,
2013-07-11 08:38:00,62.4,47.1,29.82,East,90,1.2,1.4,57,0.00,,,0.00,WUHU216TE923,2013-07-11 15:38:00,
2013-07-11 08:43:00,62.4,46.1,29.82,SW,225,1.4,2.0,55,0.00,,,0.00,WUHU216TE923,2013-07-11 15:43:00,
2013-07-11 08:48:00,62.6,46.3,29.82,WNW,293,1.9,3.0,55,0.00,,,0.00,WUHU216TE923,2013-07-11 15:48:00,
2013-07-11 08:53:00,62.8,46.5,29.82,SSE,158,1.6,3.0,55,0.00,,,0.00,WUHU216TE923,2013-07-11 15:53:00,
2013-07-11 08:58:00,63.1,46.8,29.81,South,180,1.1,1.8,55,0.00,,,0.00,WUHU216TE923,2013-07-11 15:58:00,
2013-07-11 09:03:00,63.5,47.1,29.81,SE,135,0.7,1.4,55,0.00,,,0.00,WUHU216TE923,2013-07-11 16:03:00,
2013-07-11 09:08:00,63.9,47.5,29.81,SE,135,0.7,1.6,55,0.00,,,0.00,WUHU216TE923,2013-07-11 16:08:00,
2013-07-11 09:13:00,64.4,47.0,29.81,WSW,248,0.8,2.4,53,0.00,,,0.00,WUHU216TE923,2013-07-11 16:13:00,
2013-07-11 09:18:00,64.4,47.0,29.81,SE,135,1.0,3.0,53,0.00,,,0.00,WUHU216TE923,2013-07-11 16:18:00,
2013-07-11 09:23:00,64.8,47.3,29.81,SSE,158,0.8,3.0,53,0.00,,,0.00,WUHU216TE923,2013-07-11 16:23:00,
2013-07-11 09:28:00,64.9,47.4,29.81,ESE,113,0.6,1.2,53,0.00,,,0.00,WUHU216TE923,2013-07-11 16:28:00,
2013-07-11 09:33:00,65.3,47.3,29.81,ENE,68,1.1,1.1,52,0.00,,,0.00,WUHU216TE923,2013-07-11 16:33:00,
2013-07-11 09:39:00,65.5,46.4,29.81,SSE,158,1.2,1.2,50,0.00,,,0.00,WUHU216TE923,2013-07-11 16:39:00,
2013-07-11 09:44:00,65.8,46.1,29.81,WNW,293,1.5,2.1,49,0.00,,,0.00,WUHU216TE923,2013-07-11 16:44:00,
2013-07-11 09:49:00,66.0,46.3,29.81,ESE,113,1.5,2.1,49,0.00,,,0.00,WUHU216TE923,2013-07-11 16:49:00,
2013-07-11 09:54:00,66.6,46.3,29.81,SE,135,1.3,2.1,48,0.00,,,0.00,WUHU216TE923,2013-07-11 16:54:00,
2013-07-11 09:59:00,66.7,46.4,29.80,ESE,113,1.2,2.1,48,0.00,,,0.00,WUHU216TE923,2013-07-11 16:59:00,
2013-07-11 10:04:00,66.9,45.4,29.80,NNW,338,1.4,1.9,46,0.00,,,0.00,WUHU216TE923,2013-07-11 17:04:00,
2013-07-11 10:09:00,67.1,45.6,29.80,NE,45,1.3,1.9,46,0.00,,,0.00,WUHU216TE923,2013-07-11 17:09:00,
2013-07-11 10:14:00,67.5,46.6,29.80,SE,135,0.9,1.3,47,0.00,,,0.00,WUHU216TE923,2013-07-11 17:14:00,
2013-07-11 10:19:00,67.6,46.1,29.80,ESE,113,0.8,1.1,46,0.00,,,0.00,WUHU216TE923,2013-07-11 17:19:00,
2013-07-11 10:24:00,67.8,46.8,29.80,SSE,158,0.9,0.9,47,0.00,,,0.00,WUHU216TE923,2013-07-11 17:24:00,
2013-07-11 10:29:00,67.6,45.5,29.80,South,180,0.5,0.9,45,0.00,,,0.00,WUHU216TE923,2013-07-11 17:29:00,
2013-07-11 10:34:00,68.4,45.6,29.80,South,180,0.9,2.4,44,0.00,,,0.00,WUHU216TE923,2013-07-11 17:34:00,
2013-07-11 10:40:00,68.5,45.7,29.80,ENE,68,1.3,2.4,44,0.00,,,0.00,WUHU216TE923,2013-07-11 17:40:00,
2013-07-11 10:45:00,68.9,46.6,29.80,SE,135,1.5,1.8,45,0.00,,,0.00,WUHU216TE923,2013-07-11 17:45:00,
2013-07-11 10:50:00,69.1,46.2,29.80,ESE,113,1.2,1.5,44,0.00,,,0.00,WUHU216TE923,2013-07-11 17:50:00,
2013-07-11 10:55:00,69.3,45.1,29.80,NNE,23,1.1,1.9,42,0.00,,,0.00,WUHU216TE923,2013-07-11 17:55:00,
2013-07-11 11:01:00,69.3,45.1,29.80,NNE,23,0.9,1.9,42,0.00,,,0.00,WUHU216TE923,2013-07-11 18:01:00,
2013-07-11 11:06:00,69.6,43.4,29.80,North,0,1.1,1.8,39,0.00,,,0.00,WUHU216TE923,2013-07-11 18:06:00,
2013-07-11 11:11:00,70.0,42.4,29.80,SE,135,1.8,4.3,37,0.00,,,0.00,WUHU216TE923,2013-07-11 18:11:00,
2013-07-11 11:16:00,70.2,42.5,29.80,ENE,68,2.4,4.3,37,0.00,,,0.00,WUHU216TE923,2013-07-11 18:16:00,
2013-07-11 11:21:00,70.2,41.8,29.80,NNW,338,2.2,2.4,36,0.00,,,0.00,WUHU216TE923,2013-07-11 18:21:00,
2013-07-11 11:26:00,70.3,41.2,29.80,NE,45,1.5,2.2,35,0.00,,,0.00,WUHU216TE923,2013-07-11 18:26:00,
2013-07-11 11:31:00,70.5,42.1,29.80,ENE,68,1.3,2.8,36,0.00,,,0.00,WUHU216TE923,2013-07-11 18:31:00,
2013-07-11 11:36:00,70.9,42.4,29.80,SSE,158,1.4,2.8,36,0.00,,,0.00,WUHU216TE923,2013-07-11 18:36:00,
2013-07-11 11:41:00,71.4,42.9,29.80,NNE,23,2.3,5.3,36,0.00,,,0.00,WUHU216TE923,2013-07-11 18:41:00,
2013-07-11 11:46:00,71.4,42.1,29.80,ENE,68,1.9,2.3,35,0.00,,,0.00,WUHU216TE923,2013-07-11 18:46:00,
2013-07-11 11:51:00,71.4,42.1,29.80,ENE,68,1.9,2.3,35,0.00,,,0.00,WUHU216TE923,2013-07-11 18:51:00,
2013-07-11 11:56:00,71.8,42.5,29.79,SE,135,1.6,2.4,35,0.00,,,0.00,WUHU216TE923,2013-07-11 18:56:00,
2013-07-11 12:01:00,71.8,42.5,29.79,SE,135,1.6,2.4,35,0.00,,,0.00,WUHU216TE923,2013-07-11 19:01:00,
2013-07-11 12:07:00,72.3,42.2,29.79,NE,45,2.0,3.2,34,0.00,,,0.00,WUHU216TE923,2013-07-11 19:07:00,
2013-07-11 12:12:00,72.3,42.2,29.79,NE,45,2.0,3.2,34,0.00,,,0.00,WUHU216TE923,2013-07-11 19:12:00,
2013-07-11 12:17:00,72.3,41.4,29.79,SE,135,2.1,2.3,33,0.00,,,0.00,WUHU216TE923,2013-07-11 19:17:00,
2013-07-11 12:22:00,72.3,41.4,29.79,SE,135,2.1,2.3,33,0.00,,,0.00,WUHU216TE923,2013-07-11 19:22:00,
2013-07-11 12:27:00,73.0,42.0,29.79,NNE,23,2.1,5.1,33,0.00,,,0.00,WUHU216TE923,2013-07-11 19:27:00,
2013-07-11 12:32:00,73.4,40.7,29.79,NW,315,2.6,5.1,31,0.00,,,0.00,WUHU216TE923,2013-07-11 19:32:00,
2013-07-11 12:37:00,73.4,39.9,29.78,NNW,338,2.5,4.7,30,0.00,,,0.00,WUHU216TE923,2013-07-11 19:37:00,
2013-07-11 12:42:00,73.6,40.1,29.78,WSW,248,2.4,4.7,30,0.00,,,0.00,WUHU216TE923,2013-07-11 19:42:00,
2013-07-11 12:48:00,73.8,40.3,29.78,SSE,158,2.6,2.6,30,0.00,,,0.00,WUHU216TE923,2013-07-11 19:48:00,
2013-07-11 12:53:00,73.8,41.1,29.78,ESE,113,1.5,2.6,31,0.00,,,0.00,WUHU216TE923,2013-07-11 19:53:00,
2013-07-11 12:58:00,73.9,40.3,29.78,East,90,1.7,2.3,30,0.00,,,0.00,WUHU216TE923,2013-07-11 19:58:00,
2013-07-11 13:03:00,74.3,40.7,29.78,SW,225,2.9,3.8,30,0.00,,,0.00,WUHU216TE923,2013-07-11 20:03:00,
2013-07-11 13:08:00,74.1,40.5,29.78,NW,315,2.4,3.8,30,0.00,,,0.00,WUHU216TE923,2013-07-11 20:08:00,
2013-07-11 13:13:00,74.1,40.5,29.78,West,270,2.1,2.4,30,0.00,,,0.00,WUHU216TE923,2013-07-11 20:13:00,
2013-07-11 13:18:00,74.1,40.5,29.78,NE,45,1.7,2.1,30,0.00,,,0.00,WUHU216TE923,2013-07-11 20:18:00,
2013-07-11 13:24:00,74.8,41.1,29.78,NNE,23,2.1,3.2,30,0.00,,,0.00,WUHU216TE923,2013-07-11 20:24:00,
2013-07-11 13:29:00,74.7,41.0,29.78,NE,45,3.0,3.2,30,0.00,,,0.00,WUHU216TE923,2013-07-11 20:29:00,
2013-07-11 13:34:00,74.5,40.9,29.78,NNE,23,3.2,5.8,30,0.00,,,0.00,WUHU216TE923,2013-07-11 20:34:00,
2013-07-11 13:39:00,74.5,40.0,29.77,ENE,68,2.8,5.8,29,0.00,,,0.00,WUHU216TE923,2013-07-11 20:39:00,
2013-07-11 13:44:00,74.7,41.0,29.77,ENE,68,2.7,2.8,30,0.00,,,0.00,WUHU216TE923,2013-07-11 20:44:00,
2013-07-11 13:49:00,75.4,39.9,29.77,NE,45,2.9,2.9,28,0.00,,,0.00,WUHU216TE923,2013-07-11 20:49:00,
2013-07-11 13:54:00,75.4,38.9,29.77,ESE,113,3.1,3.1,27,0.00,,,0.00,WUHU216TE923,2013-07-11 20:54:00,
2013-07-11 14:00:00,75.2,38.8,29.77,ENE,68,3.0,3.9,27,0.00,,,0.00,WUHU216TE923,2013-07-11 21:00:00,
2013-07-11 14:05:00,75.2,38.8,29.77,ESE,113,2.8,3.9,27,0.00,,,0.00,WUHU216TE923,2013-07-11 21:05:00,
2013-07-11 14:10:00,75.4,38.9,29.77,ENE,68,2.9,3.0,27,0.00,,,0.00,WUHU216TE923,2013-07-11 21:10:00,
2013-07-11 14:15:00,75.6,40.0,29.77,NNW,338,2.8,2.9,28,0.00,,,0.00,WUHU216TE923,2013-07-11 21:15:00,
2013-07-11 14:20:00,75.6,40.0,29.76,WSW,248,2.3,3.0,28,0.00,,,0.00,WUHU216TE923,2013-07-11 21:20:00,
2013-07-11 14:25:00,76.3,40.6,29.76,South,180,2.1,4.0,28,0.00,,,0.00,WUHU216TE923,2013-07-11 21:25:00,
2013-07-11 14:30:00,76.1,40.5,29.76,SE,135,2.3,4.0,28,0.00,,,0.00,WUHU216TE923,2013-07-11 21:30:00,
2013-07-11 14:35:00,76.3,38.8,29.76,SE,135,2.4,3.2,26,0.00,,,0.00,WUHU216TE923,2013-07-11 21:35:00,
2013-07-11 14:40:00,76.3,39.7,29.76,NE,45,2.6,4.3,27,0.00,,,0.00,WUHU216TE923,2013-07-11 21:40:00,
2013-07-11 14:45:00,76.8,40.1,29.76,NE,45,2.0,4.3,27,0.00,,,0.00,WUHU216TE923,2013-07-11 21:45:00,
2013-07-11 14:50:00,77.4,39.7,29.76,NNW,338,2.3,2.4,26,0.00,,,0.00,WUHU216TE923,2013-07-11 21:50:00,
2013-07-11 14:55:00,77.5,38.8,29.76,NNE,23,3.5,6.9,25,0.00,,,0.00,WUHU216TE923,2013-07-11 21:55:00,
2013-07-11 15:00:00,77.4,37.7,29.76,NNW,338,3.9,6.9,24,0.00,,,0.00,WUHU216TE923,2013-07-11 22:00:00,
2013-07-11 15:05:00,77.2,38.5,29.76,NNW,338,3.3,5.1,25,0.00,,,0.00,WUHU216TE923,2013-07-11 22:05:00,
2013-07-11 15:10:00,77.4,37.7,29.76,ENE,68,3.0,5.1,24,0.00,,,0.00,WUHU216TE923,2013-07-11 22:10:00,
2013-07-11 15:15:00,77.5,38.8,29.76,ENE,68,3.4,4.0,25,0.00,,,0.00,WUHU216TE923,2013-07-11 22:15:00,
2013-07-11 15:20:00,77.7,39.0,29.74,NNE,23,3.0,8.2,25,0.00,,,0.00,WUHU216TE923,2013-07-11 22:20:00,
2013-07-11 15:25:00,78.4,39.6,29.74,NW,315,3.1,8.2,25,0.00,,,0.00,WUHU216TE923,2013-07-11 22:25:00,
2013-07-11 15:31:00,78.6,38.7,29.74,NNW,338,3.6,6.3,24,0.00,,,0.00,WUHU216TE923,2013-07-11 22:31:00,
2013-07-11 15:36:00,79.2,40.2,29.74,North,0,3.3,7.3,25,0.00,,,0.00,WUHU216TE923,2013-07-11 22:36:00,
2013-07-11 15:41:00,78.8,38.9,29.74,NNE,23,3.5,7.3,24,0.00,,,0.00,WUHU216TE923,2013-07-11 22:41:00,
2013-07-11 15:46:00,79.2,40.2,29.74,NNW,338,3.3,3.6,25,0.00,,,0.00,WUHU216TE923,2013-07-11 22:46:00,
2013-07-11 15:51:00,79.0,39.0,29.74,East,90,3.0,5.5,24,0.00,,,0.00,WUHU216TE923,2013-07-11 22:51:00,
2013-07-11 15:56:00,79.3,39.3,29.73,NNW,338,4.3,8.2,24,0.00,,,0.00,WUHU216TE923,2013-07-11 22:56:00,
2013-07-11 16:01:00,79.3,39.3,29.73,NNW,338,4.3,8.2,24,0.00,,,0.00,WUHU216TE923,2013-07-11 23:01:00,
2013-07-11 16:06:00,79.3,39.3,29.73,NE,45,4.5,4.8,24,0.00,,,0.00,WUHU216TE923,2013-07-11 23:06:00,
2013-07-11 16:11:00,79.3,39.3,29.73,NE,45,4.5,4.8,24,0.00,,,0.00,WUHU216TE923,2013-07-11 23:11:00,
2013-07-11 16:16:00,79.0,40.1,29.73,NNW,338,3.9,8.1,25,0.00,,,0.00,WUHU216TE923,2013-07-11 23:16:00,
2013-07-11 16:21:00,79.0,40.1,29.73,NNW,338,3.9,8.1,25,0.00,,,0.00,WUHU216TE923,2013-07-11 23:21:00,
2013-07-11 16:26:00,79.0,39.0,29.73,SE,135,4.9,8.3,24,0.00,,,0.00,WUHU216TE923,2013-07-11 23:26:00,
2013-07-11 16:31:00,79.0,39.0,29.73,SE,135,4.9,8.3,24,0.00,,,0.00,WUHU216TE923,2013-07-11 23:31:00,
2013-07-11 16:36:00,78.6,38.7,29.73,ENE,68,4.7,7.0,24,0.00,,,0.00,WUHU216TE923,2013-07-11 23:36:00,
2013-07-11 16:41:00,78.6,38.7,29.73,ENE,68,4.7,7.0,24,0.00,,,0.00,WUHU216TE923,2013-07-11 23:41:00,
2013-07-11 16:46:00,77.9,37.0,29.73,NNW,338,5.1,14.5,23,0.00,,,0.00,WUHU216TE923,2013-07-11 23:46:00,
2013-07-11 16:51:00,77.9,37.0,29.73,NNW,338,5.1,14.5,23,0.00,,,0.00,WUHU216TE923,2013-07-11 23:51:00,
2013-07-11 16:56:00,76.6,38.0,29.73,WSW,248,4.8,4.8,25,0.00,,,0.00,WUHU216TE923,2013-07-11 23:56:00,
2013-07-11 17:01:00,76.6,38.0,29.73,WSW,248,4.8,4.8,25,0.00,,,0.00,WUHU216TE923,2013-07-12 00:01:00,
2013-07-11 17:06:00,76.1,38.6,29.73,NNW,338,4.2,8.0,26,0.00,,,0.00,WUHU216TE923,2013-07-12 00:06:00,
2013-07-11 17:11:00,76.1,38.6,29.73,NNW,338,4.2,8.0,26,0.00,,,0.00,WUHU216TE923,2013-07-12 00:11:00,
2013-07-11 17:16:00,75.7,38.3,29.73,WNW,293,5.2,11.6,26,0.00,,,0.00,WUHU216TE923,2013-07-12 00:16:00,
2013-07-11 17:21:00,75.7,38.3,29.73,WNW,293,5.2,11.6,26,0.00,,,0.00,WUHU216TE923,2013-07-12 00:21:00,
2013-07-11 17:27:00,75.6,38.2,29.73,NNW,338,4.6,7.0,26,0.00,,,0.00,WUHU216TE923,2013-07-12 00:27:00,
2013-07-11 17:32:00,75.6,38.2,29.73,NNW,338,4.6,7.0,26,0.00,,,0.00,WUHU216TE923,2013-07-12 00:32:00,
2013-07-11 17:37:00,75.0,39.5,29.73,NW,315,4.4,6.0,28,0.00,,,0.00,WUHU216TE923,2013-07-12 00:37:00,
2013-07-11 17:42:00,74.8,39.4,29.73,ESE,113,4.3,7.9,28,0.00,,,0.00,WUHU216TE923,2013-07-12 00:42:00,
2013-07-11 17:47:00,74.5,40.0,29.73,NNE,23,4.2,7.9,29,0.00,,,0.00,WUHU216TE923,2013-07-12 00:47:00,
2013-07-11 17:52:00,74.7,40.2,29.73,North,0,5.5,8.7,29,0.00,,,0.00,WUHU216TE923,2013-07-12 00:52:00,
2013-07-11 17:57:00,74.5,40.9,29.73,ENE,68,5.7,8.7,30,0.00,,,0.00,WUHU216TE923,2013-07-12 00:57:00,
2013-07-11 18:02:00,74.3,39.8,29.73,WNW,293,4.8,5.7,29,0.00,,,0.00,WUHU216TE923,2013-07-12 01:02:00,
2013-07-11 18:07:00,74.1,39.6,29.73,NW,315,4.7,5.1,29,0.00,,,0.00,WUHU216TE923,2013-07-12 01:07:00,
2013-07-11 18:12:00,73.9,40.3,29.73,NNE,23,5.0,5.1,30,0.00,,,0.00,WUHU216TE923,2013-07-12 01:12:00,
2013-07-11 18:18:00,73.9,40.3,29.73,NNW,338,4.5,5.7,30,0.00,,,0.00,WUHU216TE923,2013-07-12 01:18:00,
2013-07-11 18:23:00,73.6,40.1,29.73,NNW,338,4.4,6.7,30,0.00,,,0.00,WUHU216TE923,2013-07-12 01:23:00,
2013-07-11 18:28:00,73.4,39.9,29.73,ENE,68,5.1,6.7,30,0.00,,,0.00,WUHU216TE923,2013-07-12 01:28:00,
2013-07-11 18:33:00,73.4,39.9,29.73,North,0,4.7,9.8,30,0.00,,,0.00,WUHU216TE923,2013-07-12 01:33:00,
2013-07-11 18:38:00,73.0,40.4,29.73,NNW,338,4.6,9.8,31,0.00,,,0.00,WUHU216TE923,2013-07-12 01:38:00,
2013-07-11 18:44:00,72.9,40.3,29.73,East,90,5.4,7.9,31,0.00,,,0.00,WUHU216TE923,2013-07-12 01:44:00,
2013-07-11 18:49:00,72.7,40.1,29.73,ENE,68,5.0,5.4,31,0.00,,,0.00,WUHU216TE923,2013-07-12 01:49:00,
2013-07-11 18:54:00,72.3,39.8,29.73,NNE,23,4.5,5.0,31,0.00,,,0.00,WUHU216TE923,2013-07-12 01:54:00,
2013-07-11 18:59:00,72.1,39.6,29.74,NNE,23,4.5,6.8,31,0.00,,,0.00,WUHU216TE923,2013-07-12 01:59:00,
2013-07-11 19:04:00,71.8,39.3,29.74,NNE,23,4.5,12.2,31,0.00,,,0.00,WUHU216TE923,2013-07-12 02:04:00,
2013-07-11 19:09:00,71.6,40.0,29.74,NNE,23,5.0,12.2,32,0.00,,,0.00,WUHU216TE923,2013-07-12 02:09:00,
2013-07-11 19:14:00,71.4,39.8,29.74,North,0,5.7,7.3,32,0.00,,,0.00,WUHU216TE923,2013-07-12 02:14:00,
2013-07-11 19:19:00,71.2,39.6,29.74,NNW,338,5.3,7.3,32,0.00,,,0.00,WUHU216TE923,2013-07-12 02:19:00,
2013-07-11 19:24:00,71.2,39.6,29.74,NNW,338,4.5,6.8,32,0.00,,,0.00,WUHU216TE923,2013-07-12 02:24:00,
2013-07-11 19:29:00,71.2,39.6,29.74,NNW,338,4.5,4.5,32,0.00,,,0.00,WUHU216TE923,2013-07-12 02:29:00,
2013-07-11 19:34:00,70.7,40.0,29.74,NNE,23,4.8,6.4,33,0.00,,,0.00,WUHU216TE923,2013-07-12 02:34:00,
2013-07-11 19:39:00,70.5,39.8,29.75,NNW,338,4.2,6.9,33,0.00,,,0.00,WUHU216TE923,2013-07-12 02:39:00,
2013-07-11 19:44:00,70.3,39.6,29.75,NNW,338,4.6,6.9,33,0.00,,,0.00,WUHU216TE923,2013-07-12 02:44:00,
2013-07-11 19:49:00,70.2,39.6,29.75,NE,45,4.5,5.4,33,0.00,,,0.00,WUHU216TE923,2013-07-12 02:49:00,
2013-07-11 19:54:00,70.0,39.4,29.75,NE,45,3.6,5.0,33,0.00,,,0.00,WUHU216TE923,2013-07-12 02:54:00,
2013-07-11 19:59:00,69.8,39.2,29.75,NNW,338,3.6,6.3,33,0.00,,,0.00,WUHU216TE923,2013-07-12 02:59:00,
2013-07-11 20:04:00,69.4,39.6,29.75,ENE,68,3.8,6.3,34,0.00,,,0.00,WUHU216TE923,2013-07-12 03:04:00,
2013-07-11 20:09:00,69.4,39.6,29.75,ESE,113,3.2,3.8,34,0.00,,,0.00,WUHU216TE923,2013-07-12 03:09:00,
2013-07-11 20:14:00,69.1,40.1,29.75,NNE,23,2.9,5.8,35,0.00,,,0.00,WUHU216TE923,2013-07-12 03:14:00,
2013-07-11 20:20:00,68.9,39.9,29.75,NNE,23,3.2,5.8,35,0.00,,,0.00,WUHU216TE923,2013-07-12 03:20:00,
2013-07-11 20:25:00,68.7,40.5,29.75,ENE,68,3.3,5.1,36,0.00,,,0.00,WUHU216TE923,2013-07-12 03:25:00,
2013-07-11 20:30:00,68.5,40.3,29.75,ENE,68,3.0,3.4,36,0.00,,,0.00,WUHU216TE923,2013-07-12 03:30:00,
2013-07-11 20:35:00,68.2,40.0,29.75,NNE,23,2.3,3.0,36,0.00,,,0.00,WUHU216TE923,2013-07-12 03:35:00,
2013-07-11 20:40:00,68.0,40.6,29.76,NNE,23,2.1,3.7,37,0.00,,,0.00,WUHU216TE923,2013-07-12 03:40:00,
2013-07-11 20:45:00,67.6,40.2,29.76,North,0,2.6,3.7,37,0.00,,,0.00,WUHU216TE923,2013-07-12 03:45:00,
2013-07-11 20:50:00,67.5,40.8,29.76,NW,315,2.9,6.5,38,0.00,,,0.00,WUHU216TE923,2013-07-12 03:50:00,
2013-07-11 20:55:00,67.1,41.2,29.76,ENE,68,3.1,6.5,39,0.00,,,0.00,WUHU216TE923,2013-07-12 03:55:00,
2013-07-11 21:00:00,66.9,41.0,29.75,West,270,3.2,5.3,39,0.00,,,0.00,WUHU216TE923,2013-07-12 04:00:00,
2013-07-11 21:05:00,66.6,41.4,29.75,NNE,23,2.7,5.3,40,0.00,,,0.00,WUHU216TE923,2013-07-12 04:05:00,
2013-07-11 21:10:00,66.4,41.2,29.75,NW,315,2.4,2.7,40,0.00,,,0.00,WUHU216TE923,2013-07-12 04:10:00,
2013-07-11 21:16:00,66.0,41.5,29.75,NE,45,1.8,2.4,41,0.00,,,0.00,WUHU216TE923,2013-07-12 04:16:00,
2013-07-11 21:21:00,65.7,41.2,29.76,NW,315,2.0,2.5,41,0.00,,,0.00,WUHU216TE923,2013-07-12 04:21:00,
2013-07-11 21:26:00,65.3,41.5,29.76,WNW,293,2.2,2.7,42,0.00,,,0.00,WUHU216TE923,2013-07-12 04:26:00,
2013-07-11 21:31:00,65.1,42.0,29.76,ENE,68,2.1,2.7,43,0.00,,,0.00,WUHU216TE923,2013-07-12 04:31:00,
2013-07-11 21:36:00,64.9,41.8,29.76,NNE,23,1.6,2.2,43,0.00,,,0.00,WUHU216TE923,2013-07-12 04:36:00,
2013-07-11 21:41:00,64.8,42.3,29.78,ESE,113,1.7,2.5,44,0.00,,,0.00,WUHU216TE923,2013-07-12 04:41:00,
2013-07-11 21:46:00,64.4,41.9,29.78,East,90,1.8,2.5,44,0.00,,,0.00,WUHU216TE923,2013-07-12 04:46:00,
2013-07-11 21:51:00,64.4,41.9,29.78,SE,135,1.5,2.1,44,0.00,,,0.00,WUHU216TE923,2013-07-12 04:51:00,
2013-07-11 21:56:00,64.0,42.2,29.78,NW,315,1.5,5.7,45,0.00,,,0.00,WUHU216TE923,2013-07-12 04:56:00,
2013-07-11 22:01:00,63.9,42.1,29.78,ENE,68,1.7,5.7,45,0.00,,,0.00,WUHU216TE923,2013-07-12 05:01:00,
2013-07-11 22:06:00,63.7,41.9,29.78,NNE,23,2.2,3.0,45,0.00,,,0.00,WUHU216TE923,2013-07-12 05:06:00,
2013-07-11 22:11:00,63.5,41.7,29.78,NNE,23,1.8,3.0,45,0.00,,,0.00,WUHU216TE923,2013-07-12 05:11:00,
2013-07-11 22:16:00,63.3,42.1,29.78,North,0,1.4,2.5,46,0.00,,,0.00,WUHU216TE923,2013-07-12 05:16:00,
2013-07-11 22:21:00,63.1,41.9,29.78,North,0,1.2,2.2,46,0.00,,,0.00,WUHU216TE923,2013-07-12 05:21:00,
2013-07-11 22:26:00,63.0,41.8,29.78,NW,315,1.1,2.2,46,0.00,,,0.00,WUHU216TE923,2013-07-12 05:26:00,
2013-07-11 22:31:00,62.8,41.7,29.78,West,270,1.1,1.1,46,0.00,,,0.00,WUHU216TE923,2013-07-12 05:31:00,
2013-07-11 22:36:00,62.6,41.5,29.78,ENE,68,0.5,1.1,46,0.00,,,0.00,WUHU216TE923,2013-07-12 05:36:00,
2013-07-11 22:41:00,62.4,41.9,29.78,NW,315,0.7,2.3,47,0.00,,,0.00,WUHU216TE923,2013-07-12 05:41:00,
2013-07-11 22:46:00,62.4,41.9,29.78,NNW,338,1.1,2.3,47,0.00,,,0.00,WUHU216TE923,2013-07-12 05:46:00,
2013-07-11 22:51:00,62.1,41.6,29.78,NNW,338,1.4,2.1,47,0.00,,,0.00,WUHU216TE923,2013-07-12 05:51:00,
2013-07-11 22:56:00,62.1,41.6,29.78,ESE,113,1.4,2.1,47,0.00,,,0.00,WUHU216TE923,2013-07-12 05:56:00,
2013-07-11 23:01:00,61.9,41.4,29.78,NE,45,1.2,1.4,47,0.00,,,0.00,WUHU216TE923,2013-07-12 06:01:00,
2013-07-11 23:06:00,61.7,41.8,29.78,NW,315,1.2,1.2,48,0.00,,,0.00,WUHU216TE923,2013-07-12 06:06:00,
2013-07-11 23:11:00,61.5,41.6,29.78,NW,315,1.3,1.5,48,0.00,,,0.00,WUHU216TE923,2013-07-12 06:11:00,
2013-07-11 23:16:00,61.3,41.4,29.78,NW,315,1.3,1.5,48,0.00,,,0.00,WUHU216TE923,2013-07-12 06:16:00,
2013-07-11 23:21:00,61.2,41.3,29.79,NW,315,1.4,1.6,48,0.00,,,0.00,WUHU216TE923,2013-07-12 06:21:00,
2013-07-11 23:26:00,61.0,41.1,29.79,NNW,338,1.7,2.6,48,0.00,,,0.00,WUHU216TE923,2013-07-12 06:26:00,
2013-07-11 23:31:00,60.8,41.5,29.79,NNW,338,1.4,2.6,49,0.00,,,0.00,WUHU216TE923,2013-07-12 06:31:00,
2013-07-11 23:36:00,60.6,41.3,29.79,NW,315,1.1,1.8,49,0.00,,,0.00,WUHU216TE923,2013-07-12 06:36:00,
2013-07-11 23:41:00,60.4,41.1,29.79,NNW,338,1.0,1.8,49,0.00,,,0.00,WUHU216TE923,2013-07-12 06:41:00,
2013-07-11 23:46:00,60.3,41.6,29.79,NNW,338,0.7,1.0,50,0.00,,,0.00,WUHU216TE923,2013-07-12 06:46:00,
2013-07-11 23:51:00,60.3,41.6,29.79,NNW,338,0.5,1.3,50,0.00,,,0.00,WUHU216TE923,2013-07-12 06:51:00,
2013-07-11 23:56:00,60.3,41.6,29.79,NNE,23,0.5,1.3,50,0.00,,,0.00,WUHU216TE923,2013-07-12 06:56:00,